Location: Unspecified
(0.0000°N, 0.0000°E)
Time: 18:13:37
(UTC+00:00)

M-CUBED/EXP-1 PRIME - Visible Passes

Search period start: 24 April 2018 00:00
Search period end: 04 May 2018 00:00
Orbit: 431 x 676 km, 101.7° (Epoch: 23 April)

Date Brightness Start Highest point End Pass type
(mag) Time Alt. Az. Time Alt. Az. Time Alt. Az.
24 Apr ? 19:13:05 25° NE 19:13:05 25° NE 19:15:59 10° NNE visible
25 Apr ? 19:10:00 21° NE 19:10:00 21° NE 19:12:34 10° NNE visible
25 Apr ? 20:45:47 10° WNW 20:45:47 10° WNW 20:45:54 10° WNW visible
26 Apr ? 19:06:53 18° NE 19:06:53 18° NE 19:09:05 10° NNE visible
26 Apr ? 20:42:41 12° WNW 20:42:41 12° WNW 20:43:08 10° WNW visible
27 Apr ? 19:03:47 15° NE 19:03:47 15° NE 19:05:31 10° NE visible
27 Apr ? 20:39:34 13° WNW 20:39:34 13° WNW 20:40:16 10° NW visible
28 Apr ? 19:00:40 13° ENE 19:00:40 13° ENE 19:01:52 10° NE visible
28 Apr ? 20:36:27 14° NW 20:36:27 14° NW 20:37:20 10° NW visible
29 Apr ? 18:57:32 11° ENE 18:57:32 11° ENE 18:57:59 10° NE visible
29 Apr ? 20:33:20 16° NW 20:33:20 16° NW 20:34:21 10° NW visible
30 Apr ? 20:30:12 17° NW 20:30:12 17° NW 20:31:20 10° NW visible
01 May ? 20:27:04 17° NW 20:27:04 17° NW 20:28:16 10° NNW visible
02 May ? 20:23:56 18° NNW 20:23:56 18° NNW 20:25:10 10° NNW visible
03 May ? 20:20:48 18° NNW 20:20:48 18° NNW 20:22:02 10° NNW visible
